Location: Newark
(43.0000°N, 1.6781°W)
Time: 10:08:54
(UTC+00:00)

Explorer 7 - Pass Details

Date: 22 April 2021
Orbit: 484 x 677 km, 50.3° (Epoch: 07 May)

Event Time Altitude Azimuth Distance (km) Brightness Sun altitude
Rises 19:00:20 0° 231° (SW) 2,581 10.7 -1.3°
Reaches altitude 10° 19:02:28 10° 228° (SW) 1,721 9.8 -1.7°
Maximum altitude 19:06:21 68° 146° (SE) 571 6.8 -2.4°
Drops below altitude 10° 19:10:28 10° 63° (ENE) 1,831 9.1 -3.1°
Sets 19:12:48 0° 61° (ENE) 2,765 10.0 -3.5°
